User: anonymous   Login
Location: ?ejeti?ky
(50.4060°N, 14.9016°E)
Time: 03:02:33
(UTC+00:00)
Language:

STARLINK-1333 - Orbit

View from above orbital plane
View from above orbital plane
View from above satellite
View from above satellite

Ground track
Ground track

The orbit data is extracted from the following two-line orbital elements,

1 45580U 20025BB  20221.91667824 +.00043764 +00000-0 +30057-2 0  9992
2 45580 053.0004 239.0144 0001613 076.6462 253.0351 15.05561366001751
Epoch (UTC): 08 August 2020 22:00:01
Eccentricity: 0.0001613
inclination: 53.0004°
perigee height: 548 km
apogee height: 551 km
right ascension of ascending node: 239.0144°
argument of perigee: 76.6462°
revolutions per day: 15.05561366
mean anomaly at epoch: 253.0351°
orbit number at epoch: 175

The dashed part of the orbit path shows where the satellite is in the earth's shadow,  

DLR